This is the latest recevied weather packets stored in our database for station/object KF6FPU-15. If no packets are shown the sender has not sent any weather packets the latest 10 day(s).
| Time | Temp. | Humidity | Pressure | Rain* | Wind** | Luminosity | Snow |
|---|---|---|---|---|---|---|---|
| 1788487979 | 31.67° C | 20% | 1011.3 hPa | - | - | - | - |
| 1788487379 | 32.22° C | 20% | 1011.3 hPa | - | - | - | - |
| 1788486779 | 32.22° C | 20% | 1011.3 hPa | - | - | - | - |
| 1788486179 | 32.22° C | 20% | 1011.3 hPa | - | - | - | - |
| 1788485579 | 32.22° C | 19% | 1011.3 hPa | - | - | - | - |
| 1788484979 | 32.22° C | 19% | 1011.3 hPa | - | - | - | - |
| 1788484379 | 32.22° C | 19% | 1011.4 hPa | - | - | - | - |
| 1788483779 | 32.22° C | 19% | 1011.5 hPa | - | - | - | - |
| 1788482579 | 31.67° C | 19% | 1011.9 hPa | - | - | - | - |
| 1788481979 | 31.67° C | 19% | 1011.9 hPa | - | - | - | - |
| 1788481379 | 32.22° C | 19% | 1011.7 hPa | - | - | - | - |
| 1788480779 | 32.22° C | 19% | 1011.7 hPa | - | - | - | - |
| 1788480179 | 32.78° C | 19% | 1011.7 hPa | - | - | - | - |
| 1788479579 | 34.44° C | 19% | 1011.8 hPa | - | - | - | - |
| 1788478979 | 35° C | 18% | 1011.9 hPa | - | - | - | - |
| 1788478379 | 36.11° C | 18% | 1011.9 hPa | - | - | - | - |
| 1788477779 | 37.22° C | 18% | 1012 hPa | - | - | - | - |
| 1788477179 | 39.44° C | 18% | 1012.2 hPa | - | - | - | - |
| 1788475979 | 41.11° C | 18% | 1012.3 hPa | - | - | - | - |
| 1788475379 | 41.11° C | 18% | 1012.5 hPa | - | - | - | - |
| 1788474779 | 41.67° C | 18% | 1012.3 hPa | - | - | - | - |
| 1788474179 | 41.67° C | 18% | 1012.2 hPa | - | - | - | - |
| 1788473579 | 41.67° C | 18% | 1012.4 hPa | - | - | - | - |
| 1788472979 | 41.11° C | 18% | 1012.5 hPa | - | - | - | - |
| 1788472379 | 41.67° C | 18% | 1012.6 hPa | - | - | - | - |
* Rain since midnight (hover to see other rain measurements)
** Current wind speed in m/s (hover to see current wind gust speed)